Home > Weather > Altdorf > Past weeks

Flag for Switzerland Weather for the Past 2 Weeks in Altdorf, Uri, Switzerland

Now
59 °F

Refreshingly cool.


Feels Like: 55 °F
Forecast: 35 / 50 °F
Wind: 25 mph from South

Location: Altdorf

Current Time: Feb 6, 2016 at 3:07:09 PM

Latest Report: Feb 6, 2016 at 2:00 PM


Visibility: N/A

Pressure: 30.03 "Hg

Humidity: 29%

Dew point: 27 °F

Location of AltdorfLocation

Historic Weather in Altdorf — Graph

°F

Altdorf Temperature Yesterday

Maximum temperature yesterday: 47 °F (at 3:00 PM)
Minimum temperature yesterday: 34 °F (at 1:00 AM)
Average temperature yesterday: 39 °F

High & Low Weather Summary for the Past Weeks

 TemperatureHumidityPressure
High60 °F (Feb 1, 1:00 PM)97% (Jan 23, 8:00 AM)30.71 "Hg (Jan 23, 8:00 AM)
Low27 °F (Jan 22, 9:00 PM)30% (Feb 6, 1:00 PM)30.03 "Hg (Jan 30, 6:00 PM)
Average40 °F84%30.39 "Hg
* Reported Jan 22 1:00 PM — Feb 6 1:00 PM, Altdorf, Weather by CustomWeather, © 2016

Note: Actual official high and low records may vary slightly from our data, if they occured in-between our weather recording intervals... More about our weather records

Advertising

Altdorf Weather History for the Previous 24 Hours

 ConditionsComfort  
Time TempWeatherWind HumidityBarometerVisibility
1:00 PM
Sat, Feb 6
59 °FPartly sunny.21 mph30%30.06 "Hg17 mi
12:00 PM59 °FRefreshingly cool.22 mph31%30.09 "HgN/A
11:00 AM46 °FCool.9 mph70%30.17 "HgN/A
10:00 AM43 °FPartly sunny.14 mph81%30.19 "Hg19 mi
9:00 AM38 °FChilly.6 mph91%30.20 "HgN/A
8:00 AM34 °FChilly.3 mph93%30.22 "HgN/A
7:00 AM35 °FClear.1 mph93%30.22 "Hg19 mi
6:00 AM35 °FChilly.3 mph94%30.24 "HgN/A
5:00 AM33 °FChilly.2 mph96%30.25 "HgN/A
4:00 AM33 °FClear.1 mph96%30.25 "Hg19 mi
9:00 PM
Fri, Feb 5
36 °FChilly.2 mph93%30.33 "HgN/A
8:00 PM38 °FChilly.2 mph93%30.34 "HgN/A
7:00 PM38 °FClear.2 mph93%30.34 "Hg19 mi
6:00 PM40 °FQuite cool.2 mph92%30.34 "HgN/A
5:00 PM40 °FQuite cool.1 mph92%30.34 "HgN/A
4:00 PM42 °FPassing clouds.2 mph92%30.34 "Hg19 mi
3:00 PM47 °FCool.3 mph80%30.34 "HgN/A
Weather by CustomWeather, © 2016

See weather overviewHow to use our weather pages